CW0009 Weather Reports


time (UTC)temp
C
wind
direction
speed
KPH
gust
KPH
rain 1hr
cm
rain 24hr
cm
rain mn
cm
humidity
%
barometer
mb
20200227111014 2 140 1.6 1.6 0.10 0.66 0.23 83 994.0
20200227110033 2 140 1.6 9.7 0.10 0.61 0.18 83 995.0
20200227105012 2 140 0.0 1.6 0.08 0.58 0.15 83 995.0
20200227104014 2 140 1.6 1.6 0.08 0.61 0.15 83 995.0
20200227103013 2 150 1.6 1.6 0.08 0.61 0.15 83 995.0
20200227102013 2 140 1.6 1.6 0.03 0.61 0.10 83 995.0
20200227101035 2 140 1.6 1.6 0.03 0.61 0.10 83 996.0
20200227095013 2 140 0.0 0.0 0.03 0.58 0.08 83 996.0
20200227094034 2 135 3.2 3.2 0.08 0.58 0.08 83 997.0
20200227093013 2 135 4.8 9.7 0.08 0.58 0.08 83 997.0
20200227092013 2 140 4.8 9.7 0.08 0.58 0.08 83 997.0
20200227091034 2 155 3.2 11.3 0.08 0.61 0.08 83 997.0
20200227090032 2 160 8.0 8.0 0.03 0.61 0.03 83 998.0
20200227085013 2 160 8.0 12.9 0.03 0.66 0.03 83 998.0
20200227084013 2 160 8.0 9.7 0.00 0.66 0.00 83 998.0
20200227083014 2 160 9.7 12.9 0.00 0.66 0.00 83 999.0
20200227082034 2 165 9.7 12.9 0.00 0.66 0.00 83 999.0
20200227081015 2 155 11.3 11.3 0.00 0.66 0.00 83 999.0
20200227080032 2 150 9.7 16.1 0.00 0.66 0.00 83 1000.0
20200227075014 2 150 4.8 11.3 0.00 0.66 0.00 83 1000.0
20200227074036 2 165 3.2 11.3 0.00 0.66 0.00 83 1000.0
20200227073014 2 170 1.6 8.0 0.00 0.66 0.00 83 1000.0
20200227072014 2 160 1.6 3.2 0.00 0.66 0.00 83 1000.0
20200227071015 2 175 1.6 8.0 0.00 0.66 0.00 82 1000.0
20200227070012 2 170 1.6 1.6 0.00 0.66 0.00 82 1000.0
20200227064014 2 165 3.2 9.7 0.00 0.74 0.00 82 1001.0
20200227063036 2 185 1.6 1.6 0.00 0.74 0.00 82 1001.0
20200227061015 2 165 1.6 4.8 0.00 0.74 0.00 82 1001.0
20200227060013 2 185 0.0 0.0 0.00 0.74 0.00 82 1002.0
20200227055014 2 185 0.0 0.0 0.00 0.76 0.00 83 1002.0
20200227054014 2 185 0.0 0.0 0.00 0.79 0.00 83 1002.0
20200227052014 2 190 3.2 0.0 0.00 0.79 0.00 83 1003.0
20200227051013 2 190 8.0 9.7 0.00 0.79 0.00 83 1003.0
20200227050013 1 190 9.7 9.7 0.00 0.79 0.00 83 1003.0
20200227045013 1 185 9.7 12.9 0.00 0.79 0.00 83 1003.0
20200227044015 1 185 8.0 9.7 0.00 0.79 0.00 83 1003.0
20200227043036 1 185 8.0 8.0 0.00 0.79 0.00 83 1004.0
20200227042013 1 180 9.7 11.3 0.00 0.84 0.00 83 1004.0
20200227041014 1 160 9.7 11.3 0.00 0.84 0.00 83 1004.0
20200227040013 1 180 8.0 11.3 0.00 0.84 0.00 82 1004.0
20200227035035 1 180 8.0 11.3 0.00 0.84 0.00 83 1004.0
20200227034036 1 185 9.7 9.7 0.00 0.84 0.00 82 1004.0
20200227033014 1 190 8.0 11.3 0.00 0.86 0.00 82 1005.0
20200227032014 1 190 8.0 9.7 0.00 0.91 0.00 82 1005.0
20200227031014 1 180 8.0 9.7 0.00 0.94 0.00 82 1005.0
20200227030011 1 185 4.8 8.0 0.00 0.97 0.00 82 1005.0
20200227025014 1 190 4.8 8.0 0.00 1.02 0.00 82 1005.0
20200227023036 1 210 1.6 4.8 0.00 1.09 0.00 82 1005.0
20200227022014 1 225 1.6 8.0 0.00 1.12 0.00 82 1005.0
20200227021014 1 205 0.0 0.0 0.00 1.17 0.00 82 1006.0
20200227020012 2 205 0.0 0.0 0.00 1.19 0.00 82 1006.0
20200227015013 2 205 0.0 0.0 0.00 1.22 0.00 82 1006.0
20200227014014 2 190 0.0 0.0 0.00 1.22 0.00 81 1006.0
20200227013014 2 195 0.0 0.0 0.00 1.30 0.00 81 1006.0
20200227012034 2 185 0.0 0.0 0.00 1.35 0.00 81 1006.0
20200227011015 2 185 0.0 0.0 0.00 1.40 0.00 81 1006.0
20200227010011 2 185 0.0 0.0 0.00 1.45 0.00 81 1006.0
20200227005034 2 185 0.0 0.0 0.00 1.47 0.00 81 1006.0
20200227004013 2 185 0.0 0.0 0.00 1.47 0.00 81 1006.0
20200227003013 2 185 0.0 3.2 0.00 1.52 0.00 81 1006.0
20200227002034 2 355 0.0 0.0 0.00 1.60 0.00 81 1006.0
20200227001036 2 355 0.0 0.0 0.00 1.65 0.00 81 1006.0
20200227000034 2 355 0.0 0.0 0.00 1.65 0.00 81 1006.0
20200226235013 2 355 0.0 0.0 0.03 1.70 0.00 81 1006.0
20200226234013 2 355 0.0 0.0 0.03 1.70 0.00 81 1007.0
20200226233013 2 345 3.2 0.0 0.03 1.70 0.00 81 1007.0
20200226232013 2 230 9.7 9.7 0.03 1.70 0.00 81 1007.0
20200226231014 2 210 9.7 16.1 0.03 1.70 0.00 81 1007.0
20200226230012 2 210 8.0 9.7 0.03 1.70 1.70 81 1007.0
20200226225013 2 235 4.8 9.7 0.00 1.70 1.65 80 1007.0
20200226223014 2 225 1.6 1.6 0.03 1.70 1.65 80 1007.0
20200226222012 2 225 4.8 0.0 0.03 1.70 1.65 80 1007.0
20200226220011 2 240 11.3 9.7 0.03 1.70 1.65 80 1007.0
20200226215012 2 260 16.1 16.1 0.03 1.70 1.65 80 1007.0
20200226214014 2 305 14.5 25.7 0.00 1.65 1.63 80 1007.0
20200226213035 2 265 8.0 14.5 0.00 1.65 1.63 80 1007.0
20200226212013 2 245 9.7 9.7 0.00 1.65 1.63 80 1006.0
20200226211014 2 225 8.0 11.3 0.00 1.65 1.63 80 1006.0
20200226210012 2 250 11.3 12.9 0.00 1.70 1.63 80 1006.0
20200226205013 2 235 12.9 12.9 0.00 1.73 1.63 80 1006.0
20200226204013 2 245 12.9 14.5 0.00 1.73 1.63 80 1006.0
20200226203014 2 235 8.0 14.5 0.00 1.73 1.63 80 1006.0
20200226201014 3 225 1.6 4.8 0.00 1.73 1.63 79 1006.0
20200226200011 3 310 1.6 1.6 0.00 1.73 1.63 79 1006.0
20200226195013 3 355 4.8 4.8 0.00 1.73 1.63 79 1006.0
20200226194034 3 245 8.0 8.0 0.00 1.73 1.63 79 1006.0
20200226193013 3 220 4.8 11.3 0.00 1.73 1.63 79 1006.0
20200226192013 3 215 4.8 9.7 0.00 1.73 1.63 79 1006.0
20200226191013 3 220 4.8 8.0 0.00 1.73 1.63 79 1006.0
20200226190011 3 225 4.8 4.8 0.00 1.73 1.63 79 1006.0
20200226185013 3 240 9.7 9.7 0.00 1.78 1.63 79 1006.0
20200226184013 3 240 12.9 22.5 0.00 1.80 1.63 79 1006.0
20200226182013 3 235 1.6 3.2 0.00 1.80 1.63 79 1006.0
20200226181014 3 235 1.6 3.2 0.00 1.88 1.63 79 1005.0
20200226180012 3 245 4.8 4.8 0.00 1.88 1.63 79 1005.0
20200226175013 3 255 11.3 11.3 0.03 1.88 1.63 79 1005.0
20200226174014 3 295 9.7 19.3 0.03 1.88 1.63 79 1005.0
20200226173013 3 315 4.8 22.5 0.03 1.91 1.63 79 1005.0
20200226172013 3 255 8.0 4.8 0.03 1.91 1.63 79 1005.0
20200226171013 3 285 16.1 11.3 0.03 1.96 1.63 79 1005.0
20200226170011 3 280 14.5 29.0 0.03 1.96 1.63 79 1005.0
20200226165013 3 270 9.7 11.3 0.00 1.91 1.60 79 1005.0
20200226164034 4 265 8.0 11.3 0.00 1.96 1.60 79 1004.0
20200226163014 4 260 11.3 9.7 0.00 1.98 1.60 79 1004.0
20200226161014 4 280 16.1 19.3 0.00 2.03 1.60 79 1004.0
20200226160033 4 275 14.5 24.1 0.03 2.03 1.60 79 1004.0
20200226154014 4 270 12.9 16.1 0.10 2.08 1.60 79 1004.0
20200226153014 5 270 12.9 19.3 0.10 2.13 1.60 79 1004.0
20200226152013 5 295 11.3 19.3 0.10 2.21 1.60 79 1003.0
20200226151035 5 305 12.9 14.5 0.10 2.31 1.60 79 1003.0
20200226150032 5 330 16.1 19.3 0.08 2.34 1.55 79 1003.0
20200226145013 5 325 19.3 22.5 0.00 2.26 1.47 79 1003.0
20200226144013 5 270 17.7 29.0 0.05 2.26 1.47 79 1003.0
20200226143014 5 280 19.3 22.5 0.05 2.26 1.47 79 1003.0
20200226141012 5 280 17.7 33.8 0.10 2.26 1.47 80 1003.0
20200226140009 4 260 12.9 20.9 0.10 2.26 1.47 80 1002.0
20200226135011 4 275 11.3 19.3 0.10 2.24 1.45 80 1002.0
20200226134012 4 300 11.3 19.3 0.10 2.24 1.45 79 1002.0
20200226133013 4 300 11.3 14.5 0.10 2.24 1.45 79 1002.0
20200226132012 4 265 11.3 12.9 0.08 2.18 1.40 79 1002.0
20200226131012 4 290 12.9 12.9 0.03 2.16 1.37 79 1002.0
20200226130010 4 280 14.5 20.9 0.03 2.16 1.37 79 1002.0
20200226125012 4 265 14.5 22.5 0.00 2.13 1.32 79 1002.0
20200226124013 4 270 11.3 16.1 0.03 2.13 1.32 79 1001.0
20200226123033 4 315 12.9 14.5 0.03 2.13 1.32 79 1001.0
20200226122011 4 310 16.1 20.9 0.08 2.13 1.32 79 1001.0
20200226120031 3 310 11.3 19.3 0.08 2.13 1.32 79 1001.0
20200226115012 3 290 8.0 14.5 0.03 2.08 1.30 80 1001.0
20200226114012 3 300 8.0 9.7 0.08 2.08 1.30 80 1001.0
20200226113013 3 260 9.7 12.9 0.08 2.08 1.30 80 1001.0